PDT,Max TemperatureF,Mean TemperatureF,Min TemperatureF,Max Dew PointF,MeanDew PointF,Min DewpointF,Max Humidity, Mean Humidity, Min Humidity, Max Sea Level PressureIn, Mean Sea Level PressureIn, Min Sea Level PressureIn, Max VisibilityMiles, Mean VisibilityMiles, Min VisibilityMiles, Max Wind SpeedMPH, Mean Wind SpeedMPH, Max Gust SpeedMPH,PrecipitationIn, CloudCover, Events, WindDirDegrees
2011-10-1,77,70,63,57,55,54,78,62,46,30.05,30.01,29.98,10,10,10,20,7,23,0.00,3,,88
2011-10-2,75,67,59,56,54,51,80,63,46,30.10,30.05,30.01,10,10,10,20,5,22,0.00,2,,334
2011-10-3,72,63,54,59,52,45,90,64,38,30.02,29.95,29.90,10,10,6,12,5,18,0.29,4,Rain,153
2011-10-4,70,64,58,57,53,48,84,66,47,29.95,29.89,29.75,10,10,8,16,6,23,0.09,6,Rain,211
2011-10-5,67,61,55,57,51,45,93,71,48,29.91,29.79,29.67,10,9,2,20,5,29,0.40,5,Rain,256
2011-10-6,66,59,51,54,50,46,83,73,63,30.11,29.98,29.91,10,10,4,17,5,21,0.17,4,Rain,98
2011-10-7,74,62,49,55,49,42,93,63,33,30.19,30.14,30.11,10,10,10,16,4,18,0.00,0,,354
2011-10-8,76,65,53,57,52,48,84,64,44,30.14,30.09,30.04,10,10,10,16,5,21,0.00,1,,1
2011-10-9,75,67,59,58,55,51,84,64,43,30.07,30.02,29.94,10,10,10,16,4,18,0.00,4,,1
2011-10-10,73,66,59,66,60,53,93,77,61,30.02,29.99,29.96,10,9,5,12,3,15,0.03,7,Rain,115
2011-10-11,76,70,63,67,62,56,93,77,60,30.10,30.06,30.01,10,9,4,13,4,17,0.02,5,Rain,349
2011-10-12,83,71,58,60,56,50,90,66,41,30.12,30.05,29.97,10,10,10,12,3,14,0.00,0,,329
2011-10-13,87,73,58,60,55,47,75,52,28,30.00,29.92,29.83,10,10,10,12,3,14,0.00,0,,340
2011-10-14,85,73,60,57,54,50,67,50,33,29.86,29.83,29.81,10,10,10,9,2,12,0.00,0,,333
2011-10-15,76,68,60,60,57,54,78,66,54,29.98,29.91,29.84,10,10,9,16,5,20,0.00,0,,357
2011-10-16,76,69,62,59,58,56,78,66,54,30.11,30.05,29.98,10,10,10,16,4,21,0.00,1,,344
2011-10-17,87,73,58,61,58,53,84,62,40,30.13,30.07,30.00,10,10,8,10,2,13,0.00,0,,358
2011-10-18,74,68,62,60,57,54,84,73,61,30.07,30.03,29.99,10,10,10,17,6,21,0.00,3,,332
2011-10-19,69,65,60,55,53,50,84,71,58,30.07,30.03,29.99,10,10,10,20,6,23,0.00,4,,326
2011-10-20,68,64,59,56,54,53,84,74,63,30.12,30.05,30.01,10,9,6,15,5,17,0.00,4,,354
2011-10-21,75,66,57,58,55,52,86,70,53,30.20,30.14,30.10,10,9,6,14,4,15,0.00,3,,7
2011-10-22,86,71,55,60,54,51,86,59,32,30.14,30.07,30.00,10,10,10,10,3,14,0.00,0,,340
2011-10-23,85,70,55,56,52,47,72,51,30,30.01,29.97,29.91,10,10,10,9,2,12,0.00,0,,340
2011-10-24,74,66,57,58,54,50,78,68,57,30.06,30.00,29.95,10,10,9,14,4,17,0.00,1,,8
2011-10-25,73,64,54,54,51,44,83,61,38,30.10,30.07,30.04,10,10,9,16,5,20,0.00,1,,314
2011-10-26,76,64,51,51,39,22,89,51,13,30.16,30.10,30.06,10,10,7,14,3,15,0.00,1,,321
2011-10-27,76,62,48,39,36,31,61,41,21,30.10,30.06,30.01,10,10,10,10,2,14,0.00,0,,341
2011-10-28,77,64,50,48,42,39,68,49,29,30.16,30.11,30.08,10,10,10,9,2,21,0.00,0,,341
2011-10-29,81,66,50,54,45,38,74,49,24,30.18,30.12,30.07,10,10,10,12,2,18,0.00,0,,343
2011-10-30,80,66,52,55,48,42,78,57,35,30.13,30.09,30.04,10,10,10,13,2,15,0.00,0,,336
2011-10-31,79,67,54,57,54,49,84,63,42,30.09,30.04,29.98,10,10,9,15,3,17,0.00,0,,335